Flag for Germany Weather past 2 weeks in Westerland, Schleswig-Holstein, Germany

Now
84 °F

Sunny.


Feels Like: 83 °F
Forecast: 64 / 72 °F
Wind: 21 mph from Southeast

Location: Westerland / Sylt

Current Time: Jul 2, 2015 at 3:15:08 PM

Latest Report: Jul 2, 2015 at 2:20 PM


Visibility: 10 mi

Pressure: 30.15 "Hg

Humidity: 40%

Dew point: 57 °F

Location of WesterlandLocation

Historic Weather in Westerland — Graph

°F

Westerland temperature yesterday

Maximum temperature yesterday: 77 °F (at 2:50 PM)
Minimum temperature yesterday: 66 °F (at 8:50 AM)
Average temperature yesterday: 73 °F

Past Weeks' High & Low Weather Summary

 TemperatureHumidityPressure
High84 °F (Jul 2, 1:20 PM)94% (Jun 17, 4:20 PM)30.24 "Hg (Jun 17, 4:20 PM)
Low50 °F (Jun 19, 8:50 AM)37% (Jul 2, 1:50 PM)29.65 "Hg (Jun 22, 4:20 PM)
Average60 °F76%30.00 "Hg
* Reported Jun 17 2:20 PM — Jul 2 2:20 PM, Westerland, Weather by CustomWeather, © 2015

Note: Actual official high and low records may vary slightly from our data, if they occured in-between our weather recording intervals... More about our weather records

Advertising

Westerland weather history for previous 24 hours

 ConditionsComfort  
Time TempWeatherWind HumidityBarometerVisibility
2:20 PM
Thu, Jul 2
84 °FSunny.21 mph40%30.15 "Hg10 mi
1:50 PM84 °FSunny.20 mph37%30.15 "Hg10 mi
1:20 PM84 °FSunny.18 mph40%30.15 "Hg10 mi
12:50 PM82 °FSunny.21 mph42%30.15 "Hg10 mi
12:20 PM81 °FSunny.20 mph45%30.15 "Hg10 mi
11:50 AM81 °FSunny.21 mph45%30.15 "Hg10 mi
11:20 AM79 °FSunny.20 mph51%30.18 "Hg10 mi
10:50 AM77 °FSunny.21 mph51%30.15 "Hg10 mi
10:20 AM77 °FSunny.20 mph54%30.18 "Hg10 mi
9:50 AM75 °FSunny.20 mph54%30.15 "Hg10 mi
9:20 AM73 °FSunny.20 mph57%30.15 "Hg10 mi
8:50 AM72 °FSunny.17 mph65%30.18 "Hg10 mi
6:50 PM
Wed, Jul 1
75 °FSunny.15 mph50%30.15 "Hg10 mi
6:20 PM75 °FSunny.14 mph50%30.15 "Hg10 mi
5:50 PM75 °FSunny.16 mph54%30.18 "Hg10 mi
5:20 PM77 °FSunny.16 mph47%30.18 "Hg10 mi
4:50 PM77 °FSunny.15 mph51%30.18 "Hg10 mi
4:20 PM77 °FSunny.14 mph54%30.18 "Hg10 mi
3:50 PM77 °FSunny.14 mph47%30.18 "Hg10 mi
3:20 PM77 °FSunny.14 mph44%30.18 "Hg10 mi
Weather by CustomWeather, © 2015

See weather overviewHow to use our weather pages